Regional Weather Roundup
Issued by NWS

Home | Current Version | Previous Version | Graphics & Text | Print | Product List | Glossary On
Versions: 1 2 3 4 5 6 7 8 9 10 11 12 13 14 15 16 17 18 19 20 21 22 23 24 25 26 27 28 29 30 31 32 33 34 35 36 37 38 39 40 41 42 43 44 45 46 47 48 49 50
000
ASUS43 KTOP 261408
RWRKS

WEATHER ROUNDUP FOR KANSAS
NATIONAL WEATHER SERVICE GOODLAND KS
900 AM CDT MON SEP 26 2016

NOTE:  "FAIR" INDICATES FEW OR NO CLOUDS BELOW 12,000 FEET WITH NO
SIGNIFICANT WEATHER AND/OR OBSTRUCTIONS TO VISIBILITY.

KSZ001>006-013>018-027>032-041>047-261500-
NORTHWEST KANSAS

CITY           SKY/WX    TMP DP  RH WIND       PRES   REMARKS
GOODLAND       SUNNY     49  35  58 SW8       30.38S
HAYS           SUNNY     46  32  57 W7        30.36R
HILL CITY      SUNNY     47  38  71 W7        30.37S
RUSSELL        SUNNY     48  42  80 W5        30.33S
$$

KSZ061>065-074>080-084>089-261500-
SOUTHWEST KANSAS

CITY           SKY/WX    TMP DP  RH WIND       PRES   REMARKS
DODGE CITY     SUNNY     52  34  50 NW3       30.39R
ELKHART          N/A     50  33  52 W5          N/A
GARDEN CITY    SUNNY     50  32  50 N3        30.39R
GREAT BEND     SUNNY     48  36  61 NW3       30.35S
LIBERAL        SUNNY     48  36  61 NW6       30.40S
PRATT          SUNNY     48  41  74 CALM      30.36R
$$

KSZ066>073-081>083-090>101-261500-
SOUTHEAST KANSAS

CITY           SKY/WX    TMP DP  RH WIND       PRES   REMARKS
CHANUTE        SUNNY     58  49  72 N7        30.28S
COFFEYVILLE    SUNNY     59  51  75 N6        30.28R
HUTCHINSON     SUNNY     51  44  77 NW7       30.34R
MEDICINE LODGE   N/A     52  44  74 N3          N/A
NEWTON         SUNNY    N/A N/A N/A N6        30.33R
PARSONS        SUNNY     59  51  75 N5        30.29R
WICHITA INTL   MOSUNNY   56  46  69 N7        30.32R
WICHITA JABRA  SUNNY     56  46  69 NW6       30.32R
WICHITA MCCONL SUNNY     55  45  69 N6        30.32R
WINFIELD       SUNNY     55  48  77 N7        30.33R
$$

KSZ007>012-019>026-033>040-048>060-102>105-261500-
NORTHEAST KANSAS

CITY           SKY/WX    TMP DP  RH WIND       PRES   REMARKS
CONCORDIA      SUNNY     51  40  65 W9        30.31F
EMPORIA        SUNNY     53  47  79 NW6       30.30R
LAWRENCE       SUNNY     53  50  89 W9        30.29R
MANHATTAN      SUNNY     51  46  83 SW5       30.31R
MARYSVILLE     SUNNY     50  43  76 CALM      30.29S
OLATHE IND     SUNNY     54  47  77 NW8       30.28R
OLATHE EXE     SUNNY     56  43  61 NW8       30.27R
SALINA         SUNNY     53  44  71 NW5       30.33S
TOPEKA BILLARD SUNNY     53  46  77 W5        30.29R
TOPEKA FORBES  SUNNY     56  46  69 NW5       30.29R
$$




USA.gov is the U.S. government's official web portal to all federal, state and local government web resources and services.